Time,TemperatureF,DewpointF,PressureIn,WindDirection,WindDirectionDegrees,WindSpeedMPH,WindSpeedGustMPH,Humidity,HourlyPrecipIn,Conditions,Clouds,dailyrainin,SolarRadiationWatts/m^2,SoftwareType,DateUTC
2013-05-12 00:13:00,69.5,65.0,29.89,NW,321,0.0,0.0,84,0.00,,,0.00,0,weatherlink.com 1.10,2013-05-12 04:13:00,
2013-05-12 00:28:00,68.9,64.0,29.89,NW,321,0.0,0.0,85,0.00,,,0.00,0,weatherlink.com 1.10,2013-05-12 04:28:00,
2013-05-12 00:43:00,68.4,64.0,29.89,NW,321,0.0,1.0,86,0.00,,,0.00,0,weatherlink.com 1.10,2013-05-12 04:43:00,
2013-05-12 00:58:00,68.6,65.0,29.89,NW,321,0.0,0.0,87,0.00,,,0.00,0,weatherlink.com 1.10,2013-05-12 04:58:00,
2013-05-12 01:13:00,68.7,65.0,29.89,NW,323,0.0,1.0,87,0.00,,,0.00,0,weatherlink.com 1.10,2013-05-12 05:13:00,
2013-05-12 01:28:00,68.7,65.0,29.89,NW,314,0.0,2.0,87,0.00,,,0.00,0,weatherlink.com 1.10,2013-05-12 05:28:00,
2013-05-12 01:43:00,69.2,65.0,29.89,NW,313,0.0,6.0,86,0.00,,,0.00,0,weatherlink.com 1.10,2013-05-12 05:43:00,
2013-05-12 01:58:00,69.0,65.0,29.88,NW,313,0.0,1.0,86,0.00,,,0.00,0,weatherlink.com 1.10,2013-05-12 05:58:00,
2013-05-12 02:13:00,68.8,65.0,29.87,North,355,0.0,1.0,87,0.00,,,0.00,0,weatherlink.com 1.10,2013-05-12 06:13:00,
2013-05-12 02:28:00,68.6,65.0,29.87,NNW,333,0.0,1.0,87,0.00,,,0.00,0,weatherlink.com 1.10,2013-05-12 06:28:00,
2013-05-12 02:43:00,68.2,65.0,29.87,NNW,333,0.0,0.0,88,0.00,,,0.00,0,weatherlink.com 1.10,2013-05-12 06:43:00,
2013-05-12 02:58:00,68.0,65.0,29.87,NNW,332,0.0,1.0,89,0.00,,,0.00,0,weatherlink.com 1.10,2013-05-12 06:58:00,
2013-05-12 03:13:00,67.7,64.0,29.87,NW,312,0.0,4.0,89,0.00,,,0.00,0,weatherlink.com 1.10,2013-05-12 07:13:00,
2013-05-12 03:28:00,67.5,64.0,29.86,NW,312,0.0,1.0,89,0.00,,,0.00,0,weatherlink.com 1.10,2013-05-12 07:28:00,
2013-05-12 03:43:00,67.2,64.0,29.86,NW,313,0.0,4.0,89,0.00,,,0.00,0,weatherlink.com 1.10,2013-05-12 07:43:00,
2013-05-12 03:58:00,66.6,64.0,29.86,NW,311,0.0,2.0,90,0.00,,,0.00,0,weatherlink.com 1.10,2013-05-12 07:58:00,
2013-05-12 04:13:00,66.1,63.0,29.87,NW,306,0.0,6.0,90,0.00,,,0.00,0,weatherlink.com 1.10,2013-05-12 08:13:00,
2013-05-12 04:28:00,65.6,63.0,29.87,NW,306,0.0,1.0,91,0.00,,,0.00,0,weatherlink.com 1.10,2013-05-12 08:28:00,
2013-05-12 04:43:00,65.3,63.0,29.87,NW,306,0.0,1.0,91,0.00,,,0.00,0,weatherlink.com 1.10,2013-05-12 08:43:00,
2013-05-12 04:58:00,64.8,63.0,29.87,NW,306,0.0,0.0,92,0.00,,,0.00,0,weatherlink.com 1.10,2013-05-12 08:58:00,
2013-05-12 05:13:00,64.0,62.0,29.88,NW,306,0.0,1.0,93,0.00,,,0.00,0,weatherlink.com 1.10,2013-05-12 09:13:00,
2013-05-12 05:28:00,63.8,62.0,29.88,NW,306,0.0,1.0,93,0.00,,,0.00,0,weatherlink.com 1.10,2013-05-12 09:28:00,
2013-05-12 05:43:00,63.4,61.0,29.88,NW,306,0.0,0.0,93,0.00,,,0.00,0,weatherlink.com 1.10,2013-05-12 09:43:00,
2013-05-12 05:59:00,63.0,61.0,29.89,NW,306,0.0,0.0,93,0.00,,,0.00,0,weatherlink.com 1.10,2013-05-12 09:59:00,
2013-05-12 06:14:00,62.6,61.0,29.90,NW,306,0.0,1.0,93,0.00,,,0.00,0,weatherlink.com 1.10,2013-05-12 10:14:00,
2013-05-12 06:29:00,62.3,60.0,29.91,NW,306,0.0,1.0,93,0.00,,,0.00,0,weatherlink.com 1.10,2013-05-12 10:29:00,
2013-05-12 06:44:00,62.1,60.0,29.91,North,351,0.0,2.0,94,0.00,,,0.00,9,weatherlink.com 1.10,2013-05-12 10:44:00,
2013-05-12 06:59:00,61.8,60.0,29.92,NW,311,0.0,1.0,93,0.00,,,0.00,18,weatherlink.com 1.10,2013-05-12 10:59:00,
2013-05-12 07:14:00,61.8,60.0,29.93,NW,316,0.0,1.0,93,0.00,,,0.00,28,weatherlink.com 1.10,2013-05-12 11:14:00,
2013-05-12 07:29:00,62.0,60.0,29.94,NNE,17,1.0,4.0,93,0.00,,,0.00,35,weatherlink.com 1.10,2013-05-12 11:29:00,
2013-05-12 07:44:00,62.4,60.0,29.94,NNE,27,0.0,8.0,91,0.00,,,0.00,44,weatherlink.com 1.10,2013-05-12 11:44:00,
2013-05-12 07:59:00,62.7,60.0,29.94,NNE,24,3.0,9.0,89,0.00,,,0.00,53,weatherlink.com 1.10,2013-05-12 11:59:00,
2013-05-12 08:14:00,63.2,60.0,29.94,NNW,338,1.0,11.0,88,0.00,,,0.00,297,weatherlink.com 1.10,2013-05-12 12:14:00,
2013-05-12 08:29:00,64.4,60.0,29.95,North,9,2.0,8.0,86,0.00,,,0.00,352,weatherlink.com 1.10,2013-05-12 12:29:00,
2013-05-12 08:44:00,65.2,60.0,29.95,NE,35,4.0,8.0,82,0.00,,,0.00,403,weatherlink.com 1.10,2013-05-12 12:44:00,
2013-05-12 08:59:00,66.1,60.0,29.95,NNE,32,0.0,9.0,80,0.00,,,0.00,461,weatherlink.com 1.10,2013-05-12 12:59:00,
2013-05-12 09:14:00,67.3,60.0,29.95,NNE,22,0.0,8.0,76,0.00,,,0.00,520,weatherlink.com 1.10,2013-05-12 13:14:00,
2013-05-12 09:29:00,69.2,60.0,29.95,NNE,17,0.0,8.0,72,0.00,,,0.00,568,weatherlink.com 1.10,2013-05-12 13:29:00,
2013-05-12 09:44:00,69.6,58.0,29.95,ENE,57,0.0,7.0,67,0.00,,,0.00,621,weatherlink.com 1.10,2013-05-12 13:44:00,
2013-05-12 09:59:00,70.7,59.0,29.95,NNE,32,0.0,6.0,66,0.00,,,0.00,668,weatherlink.com 1.10,2013-05-12 13:59:00,
2013-05-12 10:14:00,71.6,58.0,29.95,NE,37,0.0,9.0,63,0.00,,,0.00,710,weatherlink.com 1.10,2013-05-12 14:14:00,
2013-05-12 10:30:00,71.9,57.0,29.96,NNE,18,9.0,10.0,59,0.00,,,0.00,751,weatherlink.com 1.10,2013-05-12 14:30:00,
2013-05-12 10:45:00,73.0,58.0,29.96,North,9,0.0,8.0,59,0.00,,,0.00,789,weatherlink.com 1.10,2013-05-12 14:45:00,
2013-05-12 11:00:00,72.9,55.0,29.96,North,360,0.0,7.0,54,0.00,,,0.00,831,weatherlink.com 1.10,2013-05-12 15:00:00,
2013-05-12 11:15:00,73.6,55.0,29.96,NNE,21,0.0,8.0,53,0.00,,,0.00,860,weatherlink.com 1.10,2013-05-12 15:15:00,
2013-05-12 11:30:00,73.9,56.0,29.96,ENE,63,0.0,11.0,53,0.00,,,0.00,889,weatherlink.com 1.10,2013-05-12 15:30:00,
2013-05-12 11:45:00,74.9,56.0,29.96,NE,38,6.0,8.0,52,0.00,,,0.00,912,weatherlink.com 1.10,2013-05-12 15:45:00,
2013-05-12 12:00:00,75.3,56.0,29.96,NE,34,2.0,6.0,51,0.00,,,0.00,935,weatherlink.com 1.10,2013-05-12 16:00:00,
2013-05-12 12:15:00,75.8,55.0,29.96,NW,309,0.0,9.0,48,0.00,,,0.00,958,weatherlink.com 1.10,2013-05-12 16:15:00,
2013-05-12 12:30:00,76.6,56.0,29.96,North,360,0.0,9.0,49,0.00,,,0.00,974,weatherlink.com 1.10,2013-05-12 16:30:00,
2013-05-12 12:45:00,77.4,56.0,29.96,WNW,303,5.0,9.0,48,0.00,,,0.00,986,weatherlink.com 1.10,2013-05-12 16:45:00,
2013-05-12 13:00:00,76.8,56.0,29.95,NW,311,0.0,8.0,49,0.00,,,0.00,1000,weatherlink.com 1.10,2013-05-12 17:00:00,
2013-05-12 13:15:00,77.0,57.0,29.95,WNW,299,0.0,9.0,50,0.00,,,0.00,1028,weatherlink.com 1.10,2013-05-12 17:15:00,
2013-05-12 13:30:00,77.7,56.0,29.96,NNE,21,0.0,10.0,47,0.00,,,0.00,1002,weatherlink.com 1.10,2013-05-12 17:30:00,
2013-05-12 13:45:00,77.6,56.0,29.96,WNW,294,8.0,10.0,48,0.00,,,0.00,1016,weatherlink.com 1.10,2013-05-12 17:45:00,
2013-05-12 14:00:00,78.0,58.0,29.96,North,355,4.0,13.0,50,0.00,,,0.00,220,weatherlink.com 1.10,2013-05-12 18:00:00,
2013-05-12 14:15:00,76.0,58.0,29.95,NNE,24,1.0,11.0,54,0.00,,,0.00,420,weatherlink.com 1.10,2013-05-12 18:15:00,
2013-05-12 14:30:00,77.7,56.0,29.95,ESE,121,0.0,11.0,48,0.00,,,0.00,294,weatherlink.com 1.10,2013-05-12 18:30:00,
2013-05-12 14:45:00,77.9,56.0,29.94,NNE,17,7.0,9.0,47,0.00,,,0.00,1002,weatherlink.com 1.10,2013-05-12 18:45:00,
2013-05-12 15:00:00,77.5,56.0,29.94,NNW,348,0.0,13.0,47,0.00,,,0.00,956,weatherlink.com 1.10,2013-05-12 19:00:00,
2013-05-12 15:15:00,79.0,56.0,29.94,North,355,7.0,11.0,45,0.00,,,0.00,921,weatherlink.com 1.10,2013-05-12 19:15:00,
2013-05-12 15:30:00,78.4,56.0,29.93,West,268,0.0,8.0,46,0.00,,,0.00,882,weatherlink.com 1.10,2013-05-12 19:30:00,
2013-05-12 15:45:00,78.7,56.0,29.93,SSE,167,0.0,10.0,45,0.00,,,0.00,851,weatherlink.com 1.10,2013-05-12 19:45:00,
2013-05-12 16:00:00,79.3,56.0,29.92,NNW,348,3.0,9.0,45,0.00,,,0.00,823,weatherlink.com 1.10,2013-05-12 20:00:00,
2013-05-12 16:15:00,78.4,53.0,29.92,North,355,1.0,9.0,42,0.00,,,0.00,768,weatherlink.com 1.10,2013-05-12 20:15:00,
2013-05-12 16:30:00,78.5,53.0,29.92,NW,319,0.0,9.0,41,0.00,,,0.00,714,weatherlink.com 1.10,2013-05-12 20:30:00,
2013-05-12 16:45:00,78.2,53.0,29.92,WNW,291,5.0,13.0,42,0.00,,,0.00,675,weatherlink.com 1.10,2013-05-12 20:45:00,
2013-05-12 17:00:00,78.1,52.0,29.93,NNW,344,0.0,12.0,40,0.00,,,0.00,629,weatherlink.com 1.10,2013-05-12 21:00:00,
2013-05-12 17:15:00,77.7,51.0,29.93,NW,319,0.0,11.0,39,0.00,,,0.00,577,weatherlink.com 1.10,2013-05-12 21:15:00,
2013-05-12 17:30:00,77.4,50.0,29.93,NW,319,3.0,9.0,39,0.00,,,0.00,522,weatherlink.com 1.10,2013-05-12 21:30:00,
2013-05-12 17:45:00,77.1,52.0,29.93,North,5,0.0,8.0,42,0.00,,,0.00,471,weatherlink.com 1.10,2013-05-12 21:45:00,
2013-05-12 18:00:00,76.8,50.0,29.94,West,279,4.0,9.0,39,0.00,,,0.00,111,weatherlink.com 1.10,2013-05-12 22:00:00,
2013-05-12 18:15:00,75.9,49.0,29.94,West,279,2.0,12.0,39,0.00,,,0.00,146,weatherlink.com 1.10,2013-05-12 22:15:00,
2013-05-12 18:30:00,75.1,48.0,29.94,NNE,19,4.0,13.0,38,0.00,,,0.00,54,weatherlink.com 1.10,2013-05-12 22:30:00,
2013-05-12 18:45:00,74.4,47.0,29.94,WNW,297,1.0,9.0,38,0.00,,,0.00,47,weatherlink.com 1.10,2013-05-12 22:45:00,
2013-05-12 19:00:00,73.5,45.0,29.95,NNE,17,1.0,11.0,36,0.00,,,0.00,40,weatherlink.com 1.10,2013-05-12 23:00:00,
2013-05-12 19:15:00,72.6,43.0,29.95,NNW,340,1.0,13.0,34,0.00,,,0.00,35,weatherlink.com 1.10,2013-05-12 23:15:00,
2013-05-12 19:30:00,71.7,42.0,29.96,NW,315,8.0,9.0,34,0.00,,,0.00,30,weatherlink.com 1.10,2013-05-12 23:30:00,
2013-05-12 19:45:00,70.8,42.0,29.97,NNW,329,5.0,5.0,36,0.00,,,0.00,21,weatherlink.com 1.10,2013-05-12 23:45:00,
2013-05-12 20:00:00,69.7,41.0,29.97,North,5,0.0,9.0,35,0.00,,,0.00,9,weatherlink.com 1.10,2013-05-13 00:00:00,
2013-05-12 20:16:00,68.2,39.0,29.98,West,279,1.0,3.0,35,0.00,,,0.00,0,weatherlink.com 1.10,2013-05-13 00:16:00,
2013-05-12 20:31:00,67.2,39.0,29.98,NNW,338,1.0,6.0,36,0.00,,,0.00,0,weatherlink.com 1.10,2013-05-13 00:31:00,
2013-05-12 20:46:00,66.2,39.0,29.98,NW,326,0.0,2.0,37,0.00,,,0.00,0,weatherlink.com 1.10,2013-05-13 00:46:00,
2013-05-12 21:01:00,65.0,40.0,29.99,NW,324,1.0,2.0,40,0.00,,,0.00,0,weatherlink.com 1.10,2013-05-13 01:01:00,
2013-05-12 21:16:00,63.6,40.0,30.00,NW,316,0.0,3.0,42,0.00,,,0.00,0,weatherlink.com 1.10,2013-05-13 01:16:00,
2013-05-12 21:31:00,62.6,40.0,30.00,NW,321,0.0,3.0,43,0.00,,,0.00,0,weatherlink.com 1.10,2013-05-13 01:31:00,
2013-05-12 21:46:00,62.4,40.0,30.01,North,351,0.0,3.0,44,0.00,,,0.00,0,weatherlink.com 1.10,2013-05-13 01:46:00,
2013-05-12 22:01:00,62.4,41.0,30.02,NW,304,0.0,5.0,45,0.00,,,0.00,0,weatherlink.com 1.10,2013-05-13 02:01:00,
2013-05-12 22:16:00,61.6,40.0,30.03,NNW,342,0.0,3.0,46,0.00,,,0.00,0,weatherlink.com 1.10,2013-05-13 02:16:00,
2013-05-12 22:31:00,61.5,41.0,30.04,NW,326,0.0,2.0,47,0.00,,,0.00,0,weatherlink.com 1.10,2013-05-13 02:31:00,
2013-05-12 22:46:00,61.1,41.0,30.04,NW,317,2.0,4.0,48,0.00,,,0.00,0,weatherlink.com 1.10,2013-05-13 02:46:00,
2013-05-12 23:01:00,60.3,41.0,30.05,NNW,348,0.0,2.0,50,0.00,,,0.00,0,weatherlink.com 1.10,2013-05-13 03:01:00,
2013-05-12 23:16:00,59.4,41.0,30.04,NW,313,4.0,4.0,51,0.00,,,0.00,0,weatherlink.com 1.10,2013-05-13 03:16:00,
2013-05-12 23:31:00,59.1,41.0,30.04,NNW,346,0.0,7.0,51,0.00,,,0.00,0,weatherlink.com 1.10,2013-05-13 03:31:00,
2013-05-12 23:46:00,58.9,41.0,30.04,NNW,328,0.0,6.0,52,0.00,,,0.00,0,weatherlink.com 1.10,2013-05-13 03:46:00,